F
Liste des engagé(e)s
Classement
PDF
   
         
   
 
Pos N° Nom Prénom Pays Temps Ecart Pl. Cat. Pl. Sexe Club
1 1 CHAHDI Hassan 00:24:11 SE 1 M S/L AL VOIRON
2 19 KITAY Abdeslam 00:24:38 27 SE 2 M
3 7 NAĂ‹L Thibaud 00:24:49 38 SE 3 M FAC ANDREZIEUX
4 683 SAINJON Manuel 00:24:56 45 SE 4 M S/L GRENOBLE UC
5 9 SHUMBII Qaasiim 00:25:04 53 SE 5 M ANNECY HAUTE SAVOIE A. *
6 4 BOUTRIA Hocine 00:25:07 56 SE 6 M S/L AL VOIRON
7 11 GIGANTE Laurent 00:25:08 57 SE 7 M ENTENTE ATHLETIQUE GRENOBLE 38
8 336 HEASLIP Olivier 00:25:12 01:01 ES 8 M S/L AL VOIRON
9 8 MERCURI Quentin 00:25:45 01:34 SE 9 M S/L AL VOIRON
10 146 JOUFFRE Fabien 00:26:16 02:05 SE 10 M COUREURS DU MONDE EN ISERE*
11 12 PASERO Mikael 00:26:39 02:28 SE 11 M
12 457 BIWOTT Stephen 00:26:54 02:43 SE 12 M
13 610 RABILLOUD Stephane 00:26:55 02:44 V1 13 M
14 13 JERONOH Mercyline 00:27:21 03:10 SE 1 F ATHLE ST JULIEN 74
15 479 AUREILLE Florian 00:27:23 03:12 SE 14 M S/L FOULEE DE VARCES VIF
16 254 SAUVE Jeremy 00:27:31 03:20 JU 15 M S/L AL VOIRON
17 93 MONNET Yannick 00:27:32 03:21 SE 16 M COUREURS DU MONDE EN ISERE*
18 452 DE SOUSA Mathieu 00:27:34 03:23 JU 17 M S/L AL VOIRON
19 662 SOULES Jean 00:27:36 03:25 V1 18 M ENTENTE ATHLETIQUE GRENOBLE 38
20 492 MORICHAUD Gwenaël 00:27:40 03:29 V1 19 M ASVEL VILLEURBANNE*
21 857 WILLMANN Damien 00:27:48 03:37 SE 20 M
22 709 PALLUAS Antoine 00:28:02 03:51 ES 21 M
23 547 GUIL Sebastien 00:28:10 03:59 SE 22 M ENTENTE ATHLETIQUE GRENOBLE 38
24 141 DEGIOVANNI Jacques 00:28:14 04:03 V1 23 M EA CENTRE ISERE*
25 298 DESAINTJEAN Florian 00:28:16 04:05 SE 24 M ENTENTE ATHLETIQUE GRENOBLE 38
26 543 GAILHOT Jonathan 00:28:23 04:12 SE 25 M
27 15 JEPKOECH MUTAI Nelly 00:28:25 04:14 SE 2 F
28 843 CHEVALIER Guillaume 00:28:25 04:14 V1 26 M S/L COUREURS DU MONDE EN ISERE
29 465 ANDRE Sebastien 00:28:29 04:18 SE 27 M
30 16 NIYONIZIGIYE Francine 00:28:43 04:32 SE 3 F AS RISPOLI VILLEURBANNE
31 707 GONON Nicolas 00:28:47 04:36 V1 28 M TEAM RUNNING PILAT
32 521 BLONDEAU Yann 00:29:18 05:07 SE 29 M
33 722 MICHEL DIT LABOELLE Hubert 00:29:22 05:11 V1 30 M TEAM RUNNING PILAT
34 117 CHARRASSE Patrick 00:29:33 05:22 V1 31 M
35 651 SORIANO Olivier 00:29:36 05:25 V1 32 M
36 763 NOASCONE Kevin 00:29:44 05:33 SE 33 M
37 866 ABAPIE Bastien 00:29:49 05:38 SE 34 M
38 318 WANDELS Noel 00:29:51 05:40 V1 35 M
39 500 ENDICOTT James 00:29:52 05:41 SE 36 M US SAINT-EGREVE
40 299 GAUTHIER Thomas 00:29:53 05:42 SE 37 M
41 302 LACHAUD Ludovic 00:29:55 05:44 JU 38 M ENTENTE ATHLETIQUE GRENOBLE 38
42 762 DROUIN Armand 00:29:58 05:47 ES 39 M S/L AL ECHIROLLES
43 331 JOURDAIN Clement 00:30:03 05:52 JU 40 M
44 546 ANDRE Eric 00:30:18 06:07 SE 41 M
45 690 DESIT Stephane 00:30:20 06:09 V2 42 M
46 490 GAGET Raphael 00:30:22 06:11 SE 43 M
47 131 LANGLOIS Cedric 00:30:26 06:15 SE 44 M
48 864 CHAHDI Lahcen 00:30:27 06:16 V2 45 M
49 453 GAUTIER Eric 00:30:27 06:16 V2 46 M
50 682 OLIER Jérémy 00:30:30 06:19 CA 47 M
51 466 DIDOMIZIO Gabriel 00:30:39 06:28 SE 48 M
52 456 EL YACOUBI Ramzi 00:30:41 06:30 V1 49 M
53 514 LOCATELLI Riccardo 00:30:50 06:39 V1 50 M US SAINT-EGREVE
54 379 TRAMOND Guillaume 00:30:51 06:40 SE 51 M COUREURS DU MONDE EN ISERE*
55 645 BRAYMAND Romain 00:30:54 06:43 JU 52 M
56 738 DAVIS Glenn 00:30:59 06:48 V1 53 M
57 311 FOURCEAUX Corentin 00:31:00 06:49 ES 54 M
58 135 CHIARUCCI Franck 00:31:01 06:50 V2 55 M
59 625 CHARTIER Franck 00:31:01 06:50 V1 56 M
60 703 PRADOS Vincent 00:31:03 06:52 V2 57 M
61 877 MERCIER Corentin 00:31:05 06:54 ES 58 M
62 330 PICARD Thibaud 00:31:05 06:54 V1 59 M COUREURS DU MONDE EN ISERE*
63 358 GALLON Eddy 00:31:08 06:57 SE 60 M
64 489 LAUNIER Olivier 00:31:14 07:03 SE 61 M S/L AL VOIRON
65 14 AUREILLE Magali 00:31:15 07:04 SE 4 F S/L FOULEE DE VARCES VIF
66 205 MENOUX Nicolas 00:31:17 07:06 V1 62 M COUREURS DU MONDE EN ISERE*
67 410 BETTU David 00:31:19 07:08 SE 63 M S/L AL VOIRON
68 608 CARON Christian 00:31:23 07:12 V1 64 M
69 767 GUNTZ Arthur 00:31:25 07:14 SE 65 M
70 860 JOURY Antoine 00:31:27 07:16 V1 66 M
71 78 THIBAUD Yann 00:31:28 07:17 V1 67 M
72 464 HALLER Emmanuel 00:31:29 07:18 V1 68 M
73 804 BARJOT Fabien 00:31:30 07:19 SE 69 M
74 711 ALAPETITE Julien 00:31:31 07:20 V1 70 M
75 807 BOISSARD Jean luc 00:31:32 07:21 V1 71 M
76 596 VIONNET Vincent 00:31:34 07:23 SE 72 M COUREURS DU MONDE EN ISERE*
77 685 GRANGIÉ Guillaume 00:31:34 07:23 V1 73 M
78 765 LAHMAR Hatem 00:31:35 07:24 SE 74 M
79 270 GHEZAL RĂ©mi 00:31:36 07:25 V2 75 M COUREURS DU MONDE EN ISERE*
80 491 HOSNI Siham 00:31:38 07:27 V1 5 F ASVEL VILLEURBANNE*
81 385 CHAVASSE-FRETTE Gael 00:31:41 07:30 SE 76 M
82 863 BERRACHEDI Mokhtar 00:31:46 07:35 V1 77 M
83 246 CHAYRIGUES Alexandre 00:31:48 07:37 SE 78 M
84 868 BROS Olivier 00:31:50 07:39 SE 79 M
85 723 BREYTON Stephanie 00:31:50 07:39 V1 6 F S/L GRENOBLE UC
86 488 CHAUVIERE Etienne 00:31:53 07:42 SE 80 M
87 458 FELLAGUE Ali 00:31:55 07:44 V1 81 M S/L CAMN VILLEURBANNE
88 594 MONIER Quentin 00:31:56 07:45 SE 82 M
89 758 MOLINA Maurizio 00:31:57 07:46 V1 83 M
90 323 REBEL Laurent 00:32:01 07:50 V2 84 M
91 307 PONCHON Vivien 00:32:02 07:51 SE 85 M
92 122 DEBIOSSAT Jean-noel 00:32:04 07:53 V3 86 M ENTENTE ATHLETIQUE GRENOBLE 38
93 787 GARNIER Laurent 00:32:05 07:54 SE 87 M
94 520 WAGNER Gregory 00:32:07 07:56 V1 88 M S/L AL VOIRON
95 72 CHARMETANT Didier 00:32:10 07:59 V2 89 M A COUREURS DE FOND DU CATEAU
96 564 LE MORVAN David 00:32:10 07:59 ES 90 M
97 983 MICON JEROME 00:32:12 08:01 SE 91 M
98 294 DEWULF Guillaume 00:32:12 08:01 ES 92 M
99 519 SCHLEICH Anouk 00:32:12 08:01 ES 7 F S/L AL VOIRON
100 812 NOYER Juliette 00:32:15 08:04 CA 8 F
101 139 BELLEVEGUE Cyril 00:32:16 08:05 V1 93 M
102 985 LEPAGNOL PHILIPPE 00:32:18 08:07 V1 94 M
103 144 CAPO Florent 00:32:21 08:10 SE 95 M COUREURS DU MONDE EN ISERE*
104 558 LE MOIGNE Gilles 00:32:25 08:14 SE 96 M
105 620 PERIER Baptiste 00:32:26 08:15 CA 97 M S/L AL VOIRON
106 760 BERTHET François-xavier 00:32:27 08:16 V1 98 M
107 293 DEWULF Nicolas 00:32:28 08:17 ES 9 F
108 713 PELLIER Alexis 00:32:30 08:19 SE 99 M
109 227 POYET Mathieu 00:32:33 08:22 SE 100 M
110 349 CHAVASSE-FRETTE LoĂŻc 00:32:36 08:25 SE 101 M
111 553 PLUSQUELLEC Gilles 00:32:37 08:26 V1 102 M
112 721 LELY Gregory 00:32:43 08:32 ES 103 M
113 790 LEFEBVRE CĂ©cile 00:32:44 08:33 SE 10 F
114 378 BERNET Damien 00:32:44 08:33 JU 104 M ENTENTE ATHLETIQUE GRENOBLE 38
115 90 MOLHO Frederic 00:32:48 08:37 SE 105 M COUREURS DU MONDE EN ISERE*
116 136 CANAS Bastien 00:32:51 08:40 SE 106 M
117 666 PELLOUX Guillaume 00:32:54 08:43 ES 107 M
118 611 VITTEL Matthieu 00:32:55 08:44 SE 108 M
119 286 CARRE Christophe 00:32:57 08:46 SE 109 M
120 659 PERENON Renaud 00:33:00 08:49 V1 110 M
121 461 BOUIS SĂ©bastien 00:33:02 08:51 SE 111 M
122 601 CHEVALIER Lionel 00:33:03 08:52 V1 112 M
123 394 CHASSINE Thierry 00:33:04 08:53 SE 113 M COUREURS DU MONDE EN ISERE*
124 341 JULIEN Maxime 00:33:04 08:53 SE 114 M S/L GRENOBLE UC
125 184 PABION Nicolas 00:33:05 08:54 SE 115 M
126 347 GIGANTE KOTOWSKI Marine 00:33:05 08:54 SE 116 M ENTENTE ATHLETIQUE GRENOBLE 38
127 468 TIRARD Gregor 00:33:10 08:59 SE 117 M
128 785 DEVESNE Lucas 00:33:11 09:00 CA 118 M
129 396 VEYET Florian 00:33:14 09:03 SE 119 M
130 34 BOMPARD Thomas 00:33:22 09:11 SE 120 M
131 694 FONTAINE Adrien 00:33:23 09:12 SE 121 M
132 602 PROIA Daniel 00:33:26 09:15 V2 122 M
133 209 CHALLIER Adrien 00:33:29 09:18 CA 123 M S/L AL VOIRON
134 635 DEL BINO Francis 00:33:31 09:20 V2 124 M
135 320 BRISION Stephane 00:33:31 09:20 V2 125 M S/L AL VOIRON
136 278 PERRIN-CAILLE David 00:33:33 09:22 SE 126 M S/L AL VOIRON
137 626 KERVRAN--SNOZZI Johan 00:33:35 09:24 CA 127 M
138 800 ROBALDO Xavier 00:33:37 09:26 V1 128 M
139 775 DIDIER Corentin 00:33:38 09:27 SE 129 M
140 415 FEYEUX Nelson 00:33:38 09:27 SE 130 M
141 575 GROS Nicolas 00:33:45 09:34 CA 131 M
142 679 PEJOT Frederic 00:33:49 09:38 SE 132 M
143 391 PERRIN Clément 00:33:54 09:43 SE 133 M
144 351 FERREIRA Sylvain 00:33:54 09:43 V1 134 M
145 803 PAUTONNIER Valentin 00:33:59 09:48 ES 135 M
146 658 MOYET Christophe 00:34:01 09:50 V2 136 M COUREURS DU MONDE EN ISERE*
147 371 BELZ Gilles 00:34:02 09:51 V1 137 M
148 741 NIER Olivier 00:34:03 09:52 SE 138 M
149 614 FELD Thomas 00:34:06 09:55 SE 139 M
150 485 BARRAULT Valentin 00:34:08 09:57 SE 140 M
151 730 CAMPESTRIN Bastien 00:34:11 10:00 SE 141 M
152 808 PELLICIER Romain 00:34:19 10:08 SE 142 M
153 650 CHEBBI RaĂŻane 00:34:20 10:09 ES 143 M
154 253 MASSY Yves 00:34:22 10:11 V2 144 M
155 822 VARNET Benjamin 00:34:26 10:15 JU 145 M
156 352 DUCHENE Laurent 00:34:28 10:17 V2 146 M
157 616 RENAULT Valentin 00:34:30 10:19 ES 147 M
158 851 ORIOL Francois 00:34:31 10:20 SE 148 M
159 759 BOUILLOUD Jerome 00:34:42 10:31 V1 149 M COUREURS DU MONDE EN ISERE*
160 386 GONSOLIN Morgan 00:34:43 10:32 SE 150 M
161 761 BORCA Nauryline 00:34:47 10:36 SE 11 F
162 409 MONTAGNA Patrick 00:34:48 10:37 V2 151 M
163 296 LE BLAVEC Ludovic 00:34:49 10:38 SE 152 M
164 783 BREYSSE Claude 00:34:52 10:41 V2 153 M
165 981 MICHALLAT FRANCK 00:34:53 10:42 V2 154 M
166 517 ARNOULD Antoine 00:34:54 10:43 CA 155 M
167 727 GARFAGNI Frédéric 00:34:54 10:43 V2 156 M
168 472 GAVIN David 00:34:58 10:47 SE 157 M
169 29 BABA Said 00:34:58 10:47 V1 158 M
170 346 JAILLET Frederic 00:34:58 10:47 V1 159 M US SAINT-EGREVE
171 794 VOLPI Franck 00:35:00 10:49 V2 160 M
172 750 RIONDET Alexandre 00:35:00 10:49 SE 161 M
173 644 BRAYMAND Thibaut 00:35:02 10:51 JU 162 M
174 362 BRUNET-MANQUAT Aurélien 00:35:03 10:52 SE 163 M
175 828 DONDARINI ENZO 00:35:04 10:53 CA 164 M
176 670 BETRAOUI Jean pierre 00:35:05 10:54 V1 165 M
177 237 PETRE Charly 00:35:06 10:55 V2 166 M
178 810 DUB Denis 00:35:07 10:56 V1 167 M
179 126 LANGLOIS Eric 00:35:10 10:59 SE 168 M
180 64 OLIVIER Pascal 00:35:12 11:01 V2 169 M
181 421 MONIN Christine 00:35:13 11:02 V1 12 F
182 628 REYNIER Christophe 00:35:14 11:03 SE 170 M
183 627 KERVRAN Laurent 00:35:18 11:07 V1 171 M
184 798 BORNIER Marie-agnes 00:35:19 11:08 V2 13 F
185 344 HOANG Jean-lee 00:35:23 11:12 SE 172 M
186 498 MATHIEU Vincent 00:35:24 11:13 V1 173 M
187 838 COPONAT BRUNO 00:35:25 11:14 V2 174 M
188 746 BOTALLA-GAMBETTA Bruno 00:35:25 11:14 V1 175 M
189 23 AILLOUD-BETASSON Guillaume 00:35:27 11:16 SE 176 M
190 776 DELLA ROSSA Audrey 00:35:27 11:16 SE 14 F
191 142 GERENTE Myriam 00:35:29 11:18 V1 15 F
192 111 SI TAYEB Farid 00:35:30 11:19 V1 177 M
193 832 SAGE ALEXANDRE 00:35:30 11:19 CA 178 M
194 118 FOURNERIE Remi 00:35:31 11:20 SE 179 M
195 96 THIBEAUT Philippe 00:35:32 11:21 V2 180 M
196 849 GRAIL Stephane 00:35:32 11:21 V1 181 M
197 156 TRINQUESSE Sylvain 00:35:34 11:23 SE 182 M
198 357 PORTIER Thibaut 00:35:37 11:26 V1 183 M
199 734 ROUSTAN Herve 00:35:41 11:30 V1 184 M
200 37 STORDEUR Thomas 00:35:42 11:31 SE 185 M
  La Voironnaise - 8km 2016
 
Nombre ou lettres (3 minimum)
Classement    
Filtre :
Rang :